Location: Clanezzo
(45.7500°N, 9.6000°E)
Time: 21:55:34
(UTC+00:00)

ESTCUBE 1 - Pass Details

Date: 01 July 2022
Orbit: 646 x 657 km, 97.9° (Epoch: 07 August)

Event Time Altitude Azimuth Distance (km) Brightness Sun altitude
Exits shadow 21:35:05 29° 177° (S) 1,195 ? -16.8°
Maximum altitude 21:37:21 74° 257° (WSW) 678 ? -16.9°
Drops below altitude 10° 21:41:50 10° 343° (NNW) 2,060 ? -17.3°
Sets 21:44:04 0° 346° (NNW) 2,976 ? -17.4°
